Weather History for Williamsport, PA

Change the Weather History Date:

Friday, March 21, 2014

  Actual Average Record
Temperature  
Mean Temperature 42 °F 40 °F  
Max Temperature 53 °F 50 °F 76 °F (1938)
Min Temperature 30 °F 30 °F 8 °F (1965)
Degree Days  
Heating Degree Days 23 25  
Month to date heating degree days 709 601  
Since 1 July heating degree days 5541 5068  
Cooling Degree Days 0 0  
Month to date cooling degree days 0 0  
Year to date cooling degree days 0 0  
Moisture  
Dew Point 18 °F    
Average Humidity 39    
Maximum Humidity 58    
Minimum Humidity 20    
Precipitation  
Precipitation 0.00 in 0.11 in 1.93 in (1980)
Month to date precipitation 0.73 1.91  
Year to date precipitation 4.53 6.95  
Snow  
Snow 0.00 in - - ()
Month to date snowfall 0.1  
Since 1 July snowfall 45.9  
Snow Depth 0.00 in    
Sea Level Pressure  
Sea Level Pressure 30.00 in    
Wind  
Wind Speed 7 mph (WNW)    
Max Wind Speed 17 mph    
Max Gust Speed 28 mph    
Visibility 10 miles    
Events      
T = Trace of Precipitation, MM = Missing Value Source: NWS Daily Summary

Daily Weather History Graph

Daily Weather History Graph

Search for Another Location

Airport:

Trip Planner

Search our weather history database for the weather conditions in past years. The results will help you decide how hot, cold, wet, or windy it might be!

Date:

Astronomy

Mar. 21, 2014 Rise Set
Actual Time 7:09 AM EDT 7:20 PM EDT
Civil Twilight 6:41 AM EDT 7:48 PM EDT
Nautical Twilight 6:09 AM EDT 8:20 PM EDT
Astronomical Twilight 5:36 AM EDT 8:53 PM EDT
Moon No Moon Rise 9:56 AM EDT (3/21)
Length of Visible Light 13h 06m
Length of Day
12h 11m
Waning Gibbous, 75% of the Moon is Illuminated
Mar 21
Waning Gibbous
Mar 23
Last Quarter
Mar 30
New
Apr 7
First Quarter
Apr 15
Full

Hourly Weather History & Observations

Time (EDT) Temp. Windchill Dew Point Humidity Pressure Visibility Wind Dir Wind Speed Gust Speed Precip Events Conditions
12:54 AM 37.0 °F 27.4 °F 19.0 °F 48% 29.97 in 10.0 mi WNW 17.3 mph 24.2 mph N/A   Overcast
1:54 AM 37.0 °F 29.3 °F 19.0 °F 48% 29.97 in 10.0 mi WNW 11.5 mph - N/A   Overcast
2:54 AM 36.0 °F 29.0 °F 19.0 °F 50% 29.97 in 10.0 mi WNW 9.2 mph - N/A   Overcast
3:54 AM 36.0 °F 30.3 °F 19.0 °F 50% 29.97 in 10.0 mi WNW 6.9 mph - N/A   Overcast
4:54 AM 35.1 °F 27.9 °F 19.0 °F 52% 29.98 in 10.0 mi WNW 9.2 mph - N/A   Mostly Cloudy
5:54 AM 35.1 °F 28.6 °F 19.0 °F 52% 29.98 in 10.0 mi West 8.1 mph - N/A   Mostly Cloudy
6:54 AM 34.0 °F 27.2 °F 19.9 °F 56% 30.01 in 10.0 mi West 8.1 mph - N/A   Mostly Cloudy
7:54 AM 34.0 °F 26.0 °F 19.9 °F 56% 30.02 in 10.0 mi West 10.4 mph - N/A   Mostly Cloudy
8:54 AM 35.1 °F 25.9 °F 19.0 °F 52% 30.03 in 10.0 mi West 13.8 mph - N/A   Scattered Clouds
9:54 AM 39.0 °F 32.8 °F 19.9 °F 46% 30.04 in 10.0 mi West 9.2 mph - N/A   Scattered Clouds
10:54 AM 42.1 °F 35.7 °F 18.0 °F 38% 30.04 in 10.0 mi WNW 11.5 mph - N/A   Clear
11:54 AM 44.1 °F 38.6 °F 18.0 °F 35% 30.03 in 10.0 mi West 10.4 mph 18.4 mph N/A   Clear
12:54 PM 46.9 °F - 18.0 °F 32% 30.03 in 10.0 mi Variable 5.8 mph - N/A   Clear
1:54 PM 48.0 °F - 15.1 °F 27% 30.01 in 10.0 mi NW 6.9 mph - N/A   Clear
2:54 PM 51.1 °F - 15.1 °F 24% 29.99 in 10.0 mi West 13.8 mph 18.4 mph N/A   Clear
3:54 PM 51.1 °F - 15.1 °F 24% 29.99 in 10.0 mi WSW 6.9 mph - N/A   Clear
4:54 PM 52.0 °F - 14.0 °F 22% 29.99 in 10.0 mi West 8.1 mph - N/A   Clear
5:54 PM 52.0 °F - 12.0 °F 20% 29.98 in 10.0 mi NW 8.1 mph - N/A   Clear
6:54 PM 50.0 °F - 10.9 °F 21% 30.01 in 10.0 mi Variable 3.5 mph - N/A   Clear
7:54 PM 41.0 °F 39.0 °F 24.1 °F 51% 30.01 in 10.0 mi ESE 3.5 mph - N/A   Clear
8:54 PM 39.0 °F 36.8 °F 19.9 °F 46% 30.00 in 10.0 mi NE 3.5 mph - N/A   Clear
9:54 PM 35.1 °F - 17.1 °F 48% 30.02 in 10.0 mi Calm Calm - N/A   Clear
10:54 PM 32.0 °F 27.5 °F 18.0 °F 56% 30.00 in 10.0 mi NE 4.6 mph - N/A   Clear
11:54 PM 30.0 °F - 18.0 °F 61% 29.99 in 10.0 mi Calm Calm - N/A   Clear